Rutland, VT

4:48 PM EDT on September 18, 2019 (GMT -0400)
Rutland State

Weather History for KRUT - August, 2019

Change the Weather History Date:

Sunday, August 25, 2019

  Actual Average Record
Temperature  
Mean Temperature 62 °F -  
Max Temperature 73 °F - 91 °F (2007)
Min Temperature 51 °F - 38 °F (1989)
Degree Days  
Heating Degree Days 2    
Month to date heating degree days 21  
Since 1 June heating degree days 103  
Since 1 July heating degree days 22  
Cooling Degree Days 0    
Month to date cooling degree days 87  
Year to date cooling degree days 350  
Since 1 June cooling degree days 343  
Growing Degree Days 12 (Base 50)    
Moisture  
Dew Point 50 °F    
Average Humidity 72    
Maximum Humidity 100    
Minimum Humidity 31    
Precipitation  
Precipitation 0.00 in - 1.71 in (1998)
Month to date precipitation 1.32  
Year to date precipitation 19.59  
Sea Level Pressure  
Sea Level Pressure 30.32 in    
Wind  
Wind Speed 2 mph ()    
Max Wind Speed 14 mph    
Max Gust Speed 17 mph    
Visibility 8.7 miles    
Events      
T = Trace of Precipitation, MM = Missing Value Source: Averaged Metar Reports

Daily Weather History Graph

Daily Weather History Graph

Search for Another Location

Airport or City:

Astronomy

Aug. 25, 2019 Rise Set
Actual Time 6:07 AM EDT 7:39 PM EDT
Civil Twilight 5:37 AM EDT 8:09 PM EDT
Nautical Twilight 5:01 AM EDT 8:45 PM EDT
Astronomical Twilight 4:22 AM EDT 9:24 PM EDT
Moon 12:34 AM EDT (8/25) 4:03 PM EDT (8/25)
Length of Visible Light 14h 32m
Length of Day
13h 32m
Waning Crescent, 29% of the Moon is Illuminated
Aug 25
Waning Crescent
Aug 30
New
Sep 5
First Quarter
Sep 14
Full
Sep 21
Last Quarter

Hourly Weather History & Observations

Time (EDT) Temp. Dew Point Humidity Pressure Visibility Wind Dir Wind Speed Gust Speed Precip Events Conditions
12:56 AM 57.0 °F 55.9 °F 96% 30.31 in 10.0 mi Calm Calm - N/A   Overcast
1:56 AM 55.0 °F 55.0 °F 100% 30.31 in 10.0 mi Calm Calm - N/A   Mostly Cloudy
2:56 AM 55.0 °F 54.0 °F 96% 30.30 in 10.0 mi Calm Calm - N/A   Partly Cloudy
3:56 AM 54.0 °F 53.1 °F 97% 30.31 in 10.0 mi Calm Calm - N/A   Clear
4:36 AM 53.6 °F 51.8 °F 94% 30.33 in 2.5 mi Calm Calm - N/A   Partly Cloudy
4:53 AM 51.8 °F 51.8 °F 100% 30.34 in 1.0 mi Calm Calm - N/A   Mist
4:56 AM 52.0 °F 52.0 °F 100% 30.32 in 1.0 mi Calm Calm - N/A   Mist
5:13 AM 51.8 °F 51.8 °F 100% 30.34 in 2.0 mi Calm Calm - N/A   Partly Cloudy
5:26 AM 51.8 °F 51.8 °F 100% 30.34 in 10.0 mi Calm Calm - N/A   Clear
5:56 AM 53.1 °F 52.0 °F 96% 30.33 in 10.0 mi Calm Calm - N/A   Clear
6:56 AM 52.0 °F 52.0 °F 100% 30.35 in 8.0 mi Calm Calm - N/A   Mostly Cloudy
7:56 AM 55.9 °F 54.0 °F 93% 30.37 in 10.0 mi Calm Calm - N/A   Partly Cloudy
8:56 AM 60.1 °F 55.9 °F 86% 30.37 in 10.0 mi Calm Calm - N/A   Mostly Cloudy
9:56 AM 63.0 °F 55.9 °F 78% 30.37 in 10.0 mi Calm Calm - N/A   Mostly Cloudy
10:56 AM 68.0 °F 51.1 °F 55% 30.35 in 10.0 mi Variable 3.5 mph - N/A   Mostly Cloudy
11:56 AM 70.0 °F 46.9 °F 44% 30.34 in 10.0 mi ESE 6.9 mph - N/A   Partly Cloudy
12:56 PM 71.1 °F 46.9 °F 42% 30.32 in 10.0 mi East 10.4 mph - N/A   Clear
1:56 PM 72.0 °F 46.9 °F 41% 30.31 in 10.0 mi NE 9.2 mph 17.3 mph N/A   Clear
2:56 PM 73.0 °F 44.1 °F 35% 30.29 in 10.0 mi ESE 12.7 mph - N/A   Clear
3:56 PM 73.0 °F 41.0 °F 31% 30.28 in 10.0 mi ENE 8.1 mph - N/A   Clear
4:56 PM 73.0 °F 42.1 °F 33% 30.27 in 10.0 mi East 6.9 mph - N/A   Clear
5:56 PM 72.0 °F 43.0 °F 35% 30.26 in 10.0 mi ESE 8.1 mph - N/A   Clear
6:56 PM 70.0 °F 41.0 °F 35% 30.27 in 10.0 mi East 4.6 mph - N/A   Clear
7:56 PM 63.0 °F 46.9 °F 56% 30.28 in 10.0 mi SE 9.2 mph - N/A   Clear
8:56 PM 59.0 °F 48.9 °F 69% 30.30 in 10.0 mi ESE 10.4 mph - N/A   Clear
9:56 PM 57.0 °F 48.9 °F 74% 30.30 in 10.0 mi ESE 13.8 mph - N/A   Clear
10:56 PM 57.0 °F 46.9 °F 69% 30.30 in 10.0 mi SE 6.9 mph - N/A   Clear
11:56 PM 55.9 °F 46.9 °F 72% 30.30 in 10.0 mi SE 4.6 mph - N/A   Clear